Satellite-Ground Cal/Val Region Overpasses Predictions

Prediction of Satellite NPP Overpassing Cal/Val Region: PacNW

Region Location: (Latitude: 10.00, Longitude: 139.50) to (Latitude: 22.70, Longitude: 165.60).

Table of predicted overpasses for the next 14.0 days since TLE Epoch: 1/31/2020
Interval Starting Time Starting Location Ending Time Ending Location
1 02/01/2020 02:09:47 ( 19.78, 165.59) 02/01/2020 02:10:36 ( 22.65, 164.88)
2 02/01/2020 03:48:31 ( 10.03, 142.51) 02/01/2020 03:52:06 ( 22.65, 139.50)
3 02/01/2020 14:38:54 ( 22.65, 165.11) 02/01/2020 14:42:29 ( 10.03, 162.11)
4 02/01/2020 16:20:24 ( 22.65, 139.73) 02/01/2020 16:20:39 ( 21.77, 139.51)
5 02/02/2020 03:29:29 ( 10.03, 147.26) 02/02/2020 03:33:04 ( 22.65, 144.26)
6 02/02/2020 16:01:23 ( 22.65, 144.49) 02/02/2020 16:04:58 ( 10.03, 141.49)
7 02/03/2020 03:10:28 ( 10.03, 152.02) 02/03/2020 03:14:03 ( 22.65, 149.02)
8 02/03/2020 15:42:21 ( 22.65, 149.24) 02/03/2020 15:45:56 ( 10.03, 146.24)
9 02/04/2020 02:51:26 ( 10.03, 156.77) 02/04/2020 02:55:01 ( 22.65, 153.77)
10 02/04/2020 15:23:20 ( 22.65, 154.00) 02/04/2020 15:26:55 ( 10.03, 151.00)
11 02/05/2020 02:32:25 ( 10.03, 161.53) 02/05/2020 02:36:00 ( 22.65, 158.53)
12 02/05/2020 15:04:18 ( 22.66, 158.75) 02/05/2020 15:07:53 ( 10.03, 155.75)
13 02/06/2020 02:14:14 ( 13.02, 165.59) 02/06/2020 02:16:58 ( 22.65, 163.28)
14 02/06/2020 03:54:53 ( 10.03, 140.91) 02/06/2020 03:56:36 ( 16.08, 139.50)
15 02/06/2020 14:45:17 ( 22.66, 163.51) 02/06/2020 14:48:52 ( 10.04, 160.51)
16 02/07/2020 03:35:52 ( 10.03, 145.66) 02/07/2020 03:39:27 ( 22.65, 142.66)
17 02/07/2020 14:29:27 ( 11.45, 165.59) 02/07/2020 14:29:51 ( 10.04, 165.26)
18 02/07/2020 16:07:46 ( 22.65, 142.89) 02/07/2020 16:11:21 ( 10.03, 139.89)
19 02/08/2020 03:16:50 ( 10.03, 150.42) 02/08/2020 03:20:25 ( 22.65, 147.42)
20 02/08/2020 15:48:44 ( 22.65, 147.64) 02/08/2020 15:52:19 ( 10.03, 144.64)
21 02/09/2020 02:57:49 ( 10.03, 155.17) 02/09/2020 03:01:24 ( 22.65, 152.17)
22 02/09/2020 15:29:43 ( 22.65, 152.40) 02/09/2020 15:33:18 ( 10.03, 149.40)
23 02/10/2020 02:38:47 ( 10.03, 159.93) 02/10/2020 02:42:22 ( 22.65, 156.93)
24 02/10/2020 15:10:41 ( 22.65, 157.16) 02/10/2020 15:14:16 ( 10.03, 154.15)
25 02/11/2020 02:19:46 ( 10.03, 164.69) 02/11/2020 02:23:21 ( 22.66, 161.68)
26 02/11/2020 14:51:40 ( 22.65, 161.91) 02/11/2020 14:55:15 ( 10.03, 158.91)
27 02/12/2020 03:42:14 ( 10.04, 144.06) 02/12/2020 03:45:49 ( 22.66, 141.06)
28 02/12/2020 14:33:53 ( 18.25, 165.59) 02/12/2020 14:36:13 ( 10.03, 163.67)
29 02/12/2020 16:14:08 ( 22.64, 141.29) 02/12/2020 16:16:13 ( 15.31, 139.51)
30 02/13/2020 03:23:13 ( 10.04, 148.82) 02/13/2020 03:26:48 ( 22.66, 145.82)
31 02/13/2020 15:55:06 ( 22.70, 146.06) 02/13/2020 15:58:42 ( 10.02, 143.04)
32 02/14/2020 03:04:11 ( 10.05, 153.58) 02/14/2020 03:07:46 ( 22.67, 150.57)


NCC Satellite Cal/Val Overpasses Prediction Service
